Theta_e
307 308 309 310 310 308 306 306 306 306 306 306 306 306 307 306 307 307 307 307 307 308 307 307 308 308 309 309 310 312 312 313 317 318 318 316 314 315 314 313 313 312 312 313 315 315 315 316 315 315 317 318 319 320 321 321 320 320 321 316 313 314 314 316 318 318 318 319 317 316 316 316 317 317 315 315 314 315 316 314 313 313 313 312 311 311 311 312
307 307 307 308 310 309 306 305 306 306 306 306 306 306 306 306 307 307 307 307 307 307 307 307 308 308 309 310 312 314 313 315 319 318 319 316 314 315 314 313 313 312 313 315 316 315 315 315 315 315 316 317 318 320 320 321 320 320 319 315 314 316 315 316 318 318 318 318 317 316 316 316 316 316 315 315 316 316 316 315 313 314 313 312 312 311 312 312
308 307 307 307 308 308 307 306 305 306 306 306 307 306 306 307 307 307 307 307 307 307 307 308 308 309 310 311 313 314 315 320 319 318 318 315 314 315 313 312 313 312 313 315 315 315 315 315 316 315 314 316 317 318 319 320 319 319 319 318 317 316 315 316 317 317 317 317 317 316 315 315 315 315 315 315 316 316 316 315 314 314 314 312 311 311 312 312
309 308 308 307 308 308 307 306 305 306 306 307 307 307 307 308 308 307 307 307 308 308 308 308 309 311 312 313 314 314 319 323 318 316 317 315 315 315 313 313 313 313 313 314 314 315 315 315 315 315 315 315 315 316 318 318 319 319 319 319 316 315 315 315 316 316 316 316 316 316 315 315 315 314 314 315 316 317 315 313 313 313 312 311 310 311 312 312
309 309 309 309 309 308 308 307 306 306 307 307 307 307 308 308 308 308 307 308 308 309 309 310 311 312 313 314 314 315 320 320 315 316 315 315 315 314 313 313 313 313 313 314 315 315 315 316 315 315 315 316 316 316 316 316 317 318 317 317 316 315 317 316 316 316 315 315 315 315 315 315 314 314 314 315 316 316 313 311 310 310 310 309 310 311 311 312
306 307 308 309 309 309 309 308 307 307 307 307 307 307 307 308 308 308 309 308 309 311 311 312 313 314 314 314 314 316 320 316 314 316 314 315 315 314 314 313 313 313 313 314 315 316 315 315 315 315 315 315 316 316 316 316 316 318 317 316 316 316 317 316 316 315 314 314 315 315 315 314 314 315 314 314 315 313 310 309 309 309 309 309 310 310 310 311
308 308 308 307 308 308 308 308 307 307 307 307 307 307 307 308 309 310 310 310 311 312 312 314 314 314 315 314 315 319 319 315 314 315 314 315 315 314 314 313 313 313 314 316 316 316 315 315 315 315 316 315 316 315 315 316 316 318 318 317 316 316 316 316 315 314 313 314 314 314 313 313 314 315 313 312 312 310 308 309 309 309 309 309 309 309 310 310
310 310 310 309 308 308 307 307 307 307 307 307 307 307 307 308 309 311 312 312 313 313 314 314 314 315 314 315 320 319 317 318 316 315 315 315 314 314 314 313 313 314 315 316 315 316 314 314 315 314 316 316 315 316 315 315 317 317 318 316 315 315 315 315 314 314 313 314 314 313 313 314 315 314 312 312 311 309 309 309 309 309 309 309 308 308 310 310
310 311 311 310 309 309 309 308 307 307 307 307 307 307 308 309 310 311 314 313 313 314 314 314 315 314 312 316 320 315 316 319 316 317 317 316 316 314 314 315 314 314 316 315 315 316 315 315 315 314 316 316 315 316 315 315 317 316 316 316 315 315 315 315 314 315 314 313 313 313 314 315 313 313 312 311 310 309 308 308 308 309 308 308 307 308 309 309
311 310 311 311 310 310 311 311 311 309 307 307 308 308 308 310 311 312 314 314 314 314 314 314 315 314 314 318 318 314 319 320 318 319 318 317 316 313 314 315 315 315 316 315 315 315 315 316 315 315 316 316 315 315 315 315 316 315 315 315 315 316 315 315 315 315 314 314 313 313 316 315 311 312 312 309 309 309 308 308 308 308 308 307 307 307 308 308
311 311 311 312 311 311 312 311 312 312 311 309 308 309 309 311 312 313 315 314 314 314 314 315 314 314 316 318 315 316 321 321 321 320 318 318 316 314 315 315 315 316 316 316 316 316 315 316 315 315 316 316 315 315 314 314 314 314 314 315 316 316 316 316 316 315 314 314 313 313 315 313 310 312 313 309 308 309 309 309 308 308 308 307 307 307 307 308
311 311 312 312 312 313 312 312 312 312 312 311 308 309 310 311 312 314 316 315 315 315 314 315 314 314 316 316 314 317 319 320 322 320 319 319 316 316 315 314 314 315 316 316 316 316 315 315 315 315 316 316 316 316 314 313 314 314 314 316 318 317 317 317 315 314 314 313 312 313 314 313 312 312 312 309 308 309 310 309 309 308 308 307 307 306 307 307
311 311 312 312 312 313 314 314 313 312 312 311 310 310 311 312 313 315 316 315 315 315 315 315 314 314 316 316 315 316 315 317 321 320 319 318 316 316 314 313 313 313 315 317 317 315 313 314 315 316 315 316 317 315 313 313 313 315 315 316 317 318 318 317 314 313 314 312 311 313 314 315 315 313 310 309 309 309 310 310 309 308 307 307 307 306 306 306
311 310 311 312 312 314 315 315 314 312 312 311 311 313 313 314 314 316 317 316 316 316 316 315 314 314 316 315 314 314 314 315 319 318 317 316 316 315 314 313 313 313 313 315 316 313 312 314 315 316 314 315 315 313 313 315 314 316 316 316 317 317 316 316 314 314 315 311 311 313 314 315 315 312 310 309 309 310 311 311 309 308 307 307 307 307 306 306
312 311 310 312 313 314 315 315 314 313 313 311 311 313 314 315 316 317 316 315 316 316 314 314 314 315 317 315 314 314 314 315 318 318 316 316 317 316 314 314 313 314 314 314 314 312 313 315 315 316 314 313 314 314 317 317 316 317 316 316 319 317 316 317 314 315 316 312 311 313 315 316 315 312 311 309 309 310 311 311 309 308 307 306 307 306 306 306
313 311 311 312 312 314 315 315 315 314 313 311 312 313 315 317 317 317 315 314 315 314 314 317 315 314 317 316 315 316 316 317 318 317 316 316 317 317 315 314 314 314 314 313 313 313 314 315 315 316 314 314 315 316 318 318 318 318 317 316 318 318 318 317 314 314 315 314 313 314 315 317 315 312 310 309 309 309 311 311 309 308 307 306 306 306 306 306
314 312 311 311 312 315 316 316 315 314 313 312 313 315 316 317 316 316 314 313 314 314 316 319 316 315 316 315 315 316 318 319 319 317 315 315 316 316 315 315 315 314 314 313 314 314 315 315 314 315 315 315 316 318 318 317 317 318 318 317 317 318 317 316 315 314 314 314 315 315 315 317 315 312 310 310 310 310 311 311 309 308 307 306 306 306 306 306
314 313 311 311 313 315 316 315 314 314 313 313 314 315 317 317 316 316 315 315 315 315 315 315 315 316 316 315 315 316 318 318 317 317 315 314 314 315 315 315 315 315 314 314 315 315 315 315 315 316 317 316 317 318 318 318 317 316 318 318 317 317 316 316 316 315 314 315 316 317 317 317 316 313 311 310 309 310 311 310 309 308 307 306 306 306 305 305
315 314 311 311 313 314 315 315 315 315 313 312 315 316 317 316 315 317 318 318 317 317 317 315 316 316 315 316 316 316 316 316 316 317 315 313 313 314 315 315 315 315 315 316 316 315 316 316 316 317 318 318 318 318 318 320 319 318 318 317 317 316 316 318 317 314 315 316 317 318 318 318 317 314 311 310 309 310 311 309 308 307 306 306 306 305 305 304
315 314 312 311 313 313 314 315 315 316 313 314 318 318 318 319 319 319 318 318 318 317 318 317 317 316 316 317 316 314 314 315 316 317 315 313 314 314 315 315 316 316 316 317 318 315 316 318 318 319 319 319 319 318 318 319 319 318 318 317 317 317 317 318 317 314 314 316 318 319 318 319 319 317 313 310 309 310 310 309 308 308 307 306 306 305 305 304
315 315 313 312 313 313 314 314 315 317 315 315 318 320 320 320 319 318 318 318 318 318 318 318 318 317 316 316 315 314 315 315 316 317 315 313 315 315 315 315 316 316 317 318 318 315 315 318 319 319 320 319 319 319 318 318 318 318 317 317 317 317 317 319 317 313 313 315 318 319 319 318 319 318 313 310 310 310 310 310 309 308 307 306 306 305 304 303
315 315 313 312 313 314 314 315 316 317 315 315 317 320 320 319 316 314 315 318 319 319 319 318 318 317 315 315 315 315 316 316 315 316 315 313 315 316 315 315 316 317 317 317 317 316 317 318 319 319 319 318 318 318 318 318 317 318 317 317 317 318 319 319 316 313 313 315 317 318 318 318 318 318 313 310 311 311 310 309 309 308 306 305 305 304 304 303
316 315 314 312 313 314 315 316 317 317 316 316 317 319 319 316 314 314 315 318 320 320 319 318 318 317 315 315 314 314 316 316 316 317 315 314 315 316 316 316 316 318 317 316 317 318 319 318 318 318 318 317 317 316 317 317 317 317 318 317 318 318 320 319 316 314 313 314 316 317 317 318 318 317 313 310 311 309 307 306 306 306 306 305 305 304 304 303
317 316 314 312 313 315 316 317 317 316 317 317 317 319 318 315 315 317 318 318 320 320 319 319 318 318 317 316 314 314 315 316 317 318 315 314 315 315 316 316 317 318 317 317 317 318 319 318 317 317 317 317 317 316 316 316 316 318 318 318 318 319 320 320 318 315 314 314 314 315 318 319 320 320 315 309 308 307 305 304 304 304 304 304 303 303 303 303
318 317 315 313 314 316 316 317 316 315 317 317 317 317 316 316 316 316 318 319 320 320 320 320 319 318 318 316 315 315 315 316 316 317 315 315 315 315 315 316 316 317 317 317 316 318 318 316 316 317 316 317 317 316 316 317 317 318 319 318 318 319 319 320 319 317 319 320 316 316 322 322 320 322 318 309 306 307 305 305 305 304 303 302 302 302 302 302
318 318 316 315 315 316 316 317 317 316 317 317 317 317 315 316 316 315 318 318 320 321 319 319 319 318 317 316 315 315 316 316 316 317 315 315 315 315 315 315 315 316 317 317 316 318 317 314 315 317 317 317 318 317 317 318 318 319 321 319 318 319 320 321 320 319 323 324 317 314 322 323 319 320 319 311 309 309 306 305 306 304 303 302 303 303 302 301
319 318 317 316 316 316 317 318 317 317 318 317 317 317 314 315 315 315 317 320 322 322 320 318 317 317 317 317 315 315 318 316 314 315 314 314 314 313 315 315 315 315 315 317 319 318 316 314 316 318 318 319 319 318 319 317 318 321 320 319 319 319 321 321 321 320 322 322 317 314 318 321 320 319 316 312 311 310 307 307 306 305 303 303 303 303 302 301
320 318 318 317 317 317 317 318 318 318 318 316 316 316 315 315 315 316 319 323 324 322 321 317 314 314 316 316 316 316 315 315 316 315 311 312 313 313 315 316 316 315 314 316 320 319 317 316 318 318 318 320 319 319 320 318 319 320 317 317 318 319 320 320 320 320 320 320 320 317 317 319 320 318 314 312 313 313 311 309 307 305 304 303 303 302 302 301
321 320 318 317 317 317 317 318 317 318 317 315 315 316 315 315 316 317 321 324 324 321 319 317 314 314 315 315 316 315 313 313 315 313 310 311 312 312 314 315 316 317 314 315 319 320 316 313 315 317 318 319 318 316 318 319 319 317 315 316 317 317 318 318 319 319 318 320 321 320 318 320 322 318 315 314 314 315 315 311 308 306 305 303 303 302 301 300
321 321 319 318 317 317 318 318 318 318 317 314 315 315 315 316 317 320 324 326 324 321 316 315 316 315 315 316 316 315 314 313 311 310 311 311 311 311 312 313 314 316 315 315 318 317 312 309 311 315 317 317 314 312 313 316 316 315 316 317 317 316 316 316 317 317 319 321 321 320 318 320 321 320 318 317 316 316 316 312 309 307 305 304 303 302 301 300
321 321 321 318 318 318 318 318 318 318 316 315 315 315 318 321 322 325 327 324 321 320 315 315 317 316 316 318 318 316 315 314 311 312 313 312 312 312 313 314 315 317 317 317 318 317 313 312 314 314 313 313 314 312 311 312 314 316 318 318 319 318 316 317 317 316 321 324 320 318 318 320 321 320 318 317 315 315 315 312 310 307 305 304 303 302 301 300
320 321 321 319 318 318 318 319 318 318 317 315 315 317 322 324 322 325 326 321 320 322 319 317 317 317 318 319 320 317 315 315 313 314 314 313 314 314 314 317 317 319 321 319 319 319 317 317 316 314 311 312 317 316 313 311 313 316 318 318 321 323 320 321 321 319 322 323 315 314 317 320 321 319 317 316 313 313 313 312 310 307 305 304 303 302 301 300
321 321 321 320 319 318 318 319 318 318 317 316 316 319 322 322 322 325 325 323 322 321 319 318 317 318 319 320 321 318 316 316 314 314 316 315 316 315 315 317 317 320 323 322 321 321 321 319 317 315 313 312 316 319 317 314 314 316 318 319 322 326 326 326 325 322 324 319 312 312 316 318 319 317 316 313 310 308 308 310 310 307 305 304 303 302 301 300
321 321 320 320 320 319 319 318 318 318 317 316 318 321 322 322 324 325 323 324 321 317 317 318 318 319 320 321 321 318 318 318 314 315 317 316 317 318 317 317 317 320 322 322 323 322 324 324 319 318 317 313 315 319 320 318 315 316 318 319 322 325 327 327 325 324 324 318 312 313 316 319 319 315 311 307 305 305 305 307 308 307 305 304 303 301 300 299
321 321 320 320 319 319 319 318 318 318 316 316 320 322 321 322 324 324 323 322 319 316 315 317 319 321 322 321 319 317 319 319 315 315 317 317 318 319 319 318 317 319 321 323 324 323 325 327 320 317 316 314 316 318 318 319 317 316 317 319 321 322 322 321 319 318 318 317 315 314 316 317 316 311 307 305 305 304 304 305 307 306 305 304 302 301 300 299
320 320 320 319 319 319 319 318 318 317 316 317 321 322 321 321 322 323 322 320 320 318 316 318 320 321 324 322 318 317 318 318 316 316 317 318 319 319 320 320 318 318 321 323 324 323 325 324 318 314 313 313 314 316 317 318 319 317 317 318 318 317 318 318 317 314 314 319 320 316 316 316 314 312 307 306 306 304 304 305 305 306 305 303 303 302 300 299
320 319 319 319 319 319 319 318 317 316 316 318 321 322 321 321 320 320 319 319 319 318 317 320 321 321 324 323 320 318 318 318 317 318 319 319 319 320 320 320 319 318 319 321 323 323 323 322 315 314 315 311 309 313 314 314 316 316 317 318 316 315 316 317 319 319 318 321 321 318 318 317 317 317 310 307 308 306 304 305 305 305 304 304 303 302 301 299
319 318 319 319 319 319 318 318 317 315 316 318 320 321 321 320 318 317 318 319 319 318 318 321 321 321 323 324 323 319 318 320 318 318 320 320 320 320 319 320 319 318 318 319 321 320 321 323 316 313 315 311 308 312 315 313 312 314 315 316 316 318 318 317 320 322 322 323 322 320 319 318 318 318 313 310 311 309 306 305 304 305 304 303 303 302 301 299
318 318 319 319 319 319 318 317 315 315 317 318 318 319 320 320 318 317 317 318 319 319 319 320 321 321 322 323 323 320 318 320 319 318 321 320 320 320 318 319 320 318 317 317 319 318 319 323 319 312 312 312 310 313 316 314 312 311 312 315 316 317 319 318 319 320 321 323 323 322 320 318 318 318 316 315 313 310 308 306 305 305 304 303 303 302 301 299
318 319 320 319 319 319 317 316 315 316 318 318 317 318 318 319 319 318 317 318 319 319 319 321 320 320 321 321 322 320 318 320 320 319 320 320 320 320 318 318 319 318 317 317 318 319 317 320 321 314 310 312 312 314 316 317 314 312 313 315 316 315 315 317 318 318 319 321 323 323 322 319 317 317 317 317 315 311 309 307 306 306 304 304 304 303 301 300
318 320 321 318 318 318 316 316 317 318 318 316 316 317 317 319 319 320 319 319 319 319 319 321 321 321 322 321 321 321 319 320 320 320 320 320 320 320 318 318 319 318 317 317 317 318 318 318 319 315 311 313 315 314 314 315 315 314 314 315 316 316 316 318 320 318 316 318 320 321 322 321 316 314 314 315 315 313 310 308 308 306 305 304 304 303 302 300
318 321 320 318 318 317 316 317 319 319 317 315 315 316 316 318 319 320 321 320 319 320 319 319 320 321 323 321 321 322 321 320 320 320 320 320 320 320 318 317 317 317 316 317 317 318 319 318 318 317 315 315 315 312 310 311 313 314 314 315 316 316 316 319 321 319 316 316 317 317 320 320 314 310 310 310 310 311 310 309 309 307 306 305 304 303 302 301
319 320 318 318 318 316 316 319 319 318 316 314 314 316 316 317 318 318 320 320 319 320 321 320 319 321 323 322 321 321 320 320 321 320 320 321 320 319 319 318 317 316 316 316 316 317 318 318 319 319 316 314 313 311 311 310 311 313 314 314 316 317 317 318 318 317 317 317 317 316 320 320 312 307 307 306 305 306 307 308 309 308 306 305 304 303 303 302
317 317 315 316 317 316 318 320 319 317 315 314 314 315 316 317 317 318 319 320 320 320 321 321 321 321 321 321 321 320 320 321 322 321 320 321 319 315 315 318 317 315 317 318 317 316 317 319 320 320 320 318 317 315 314 313 312 312 314 314 315 317 318 317 315 315 317 320 320 319 321 320 312 306 306 305 304 305 305 306 307 308 306 305 304 303 303 302
315 315 314 314 314 315 318 320 318 316 314 314 315 315 316 317 317 317 318 319 320 320 320 320 321 321 321 321 321 321 321 321 322 322 320 320 318 312 311 316 316 316 319 320 320 317 317 319 319 321 323 323 323 321 319 317 313 312 313 315 315 316 317 316 316 316 318 320 321 320 320 318 311 308 308 307 306 305 305 304 305 306 306 304 304 303 303 302
316 317 316 314 313 313 315 316 317 316 314 314 315 315 316 317 317 316 317 318 319 320 321 320 320 321 321 322 322 322 321 320 321 322 320 318 317 311 308 311 314 316 318 318 319 318 317 318 319 321 323 323 323 323 321 318 315 314 315 316 316 316 317 317 316 317 318 319 320 320 319 318 313 310 310 309 307 307 307 304 303 303 303 303 303 302 302 301
317 317 317 317 316 315 314 315 315 316 315 314 315 315 315 316 317 317 317 317 317 318 320 320 320 321 321 321 322 322 322 320 320 320 319 318 316 311 307 308 310 312 314 315 317 317 316 317 318 319 321 322 321 321 320 318 318 317 316 316 316 316 317 318 317 318 318 319 319 320 320 320 316 312 311 311 310 309 309 306 304 303 302 302 302 301 301 300
315 316 315 315 317 316 315 315 315 316 316 315 314 315 315 315 316 317 317 317 317 318 320 320 320 320 321 321 322 323 322 321 320 319 319 319 317 313 310 310 310 311 313 315 315 316 316 317 319 319 320 320 319 319 319 319 318 318 317 317 315 315 316 317 317 317 318 319 319 320 320 320 317 313 312 312 311 311 310 308 305 303 301 301 301 300 300 300
312 313 311 311 315 316 315 315 315 315 316 315 314 314 315 315 315 316 317 317 318 318 318 319 319 319 320 321 322 323 322 322 321 319 318 318 317 315 314 314 313 311 313 315 314 315 316 316 318 320 319 319 318 318 319 319 319 319 318 317 316 315 316 316 316 316 317 318 318 318 319 318 316 313 312 313 313 311 310 307 304 303 302 300 300 300 300 300
310 311 310 309 311 312 312 314 315 315 315 315 314 314 314 316 315 316 317 318 318 318 318 318 318 318 320 320 321 321 320 320 321 320 318 317 316 315 315 317 315 311 311 314 314 314 315 316 318 318 318 318 317 316 317 317 318 319 319 318 317 316 315 315 315 315 316 317 317 317 317 317 316 314 314 314 313 310 308 307 305 304 303 301 300 300 300 299
304 304 306 309 311 310 310 312 314 315 313 312 313 314 314 315 316 317 317 315 316 317 318 318 318 318 319 319 320 320 319 319 319 318 317 316 316 316 316 316 316 312 310 312 313 313 313 315 316 316 318 319 317 315 316 315 315 318 319 319 318 316 316 315 314 314 315 316 316 317 317 316 316 316 316 313 310 309 309 308 306 305 303 301 301 300 300 299
301 302 304 309 312 311 310 311 311 313 313 311 312 312 312 313 314 316 316 313 312 313 314 316 318 318 318 318 318 318 318 316 314 312 313 313 313 313 313 312 313 313 311 311 312 311 312 314 315 316 320 319 313 313 315 314 316 319 319 318 318 316 315 314 314 314 314 315 316 316 317 316 314 314 314 312 309 309 309 308 307 305 303 302 302 301 300 300
Wind_Speed
3 3 3 2 1 1 2 2 2 2 2 2 2 2 1 1 1 2 2 2 3 3 4 4 5 5 6 8 9 10 12 12 9 6 4 2 2 5 4 3 2 3 3 2 1 3 2 2 1 2 3 1 1 1 1 1 1 2 2 3 2 2 2 2 3 3 3 6 6 4 2 3 1 3 2 2 5 5 3 5 8 9 10 8 7 7 8 9
2 2 2 1 1 1 1 2 2 3 3 2 2 2 2 2 2 3 3 3 3 3 4 4 4 5 7 8 10 11 13 13 9 4 2 1 5 6 4 4 4 4 4 2 2 3 3 1 1 3 3 1 0 0 1 0 2 2 2 3 0 3 3 3 3 4 2 4 4 3 2 3 3 3 2 3 4 5 4 7 9 9 9 8 9 9 9 9
2 1 1 1 1 2 1 1 2 3 3 3 3 2 2 3 2 3 3 3 3 3 4 4 5 5 7 8 10 12 13 11 7 1 3 2 7 5 4 5 4 4 4 3 3 3 4 2 2 3 3 1 1 0 1 1 2 1 2 3 3 4 4 4 3 5 4 3 2 2 3 3 2 3 3 5 7 5 0 4 4 5 7 7 8 9 9 9
3 2 2 2 2 3 2 2 3 4 4 3 3 3 3 3 3 3 3 3 3 4 4 4 5 5 6 8 9 11 11 8 3 3 3 5 7 4 4 5 4 4 3 2 2 1 1 1 1 3 4 2 2 1 1 2 2 1 2 2 6 3 3 5 3 5 4 3 2 1 0 3 0 3 5 6 8 2 6 7 4 4 7 6 7 8 8 9
4 3 3 3 3 3 3 3 3 4 4 3 3 4 3 4 3 3 3 3 3 3 4 4 4 5 6 7 8 9 7 4 2 4 4 6 6 4 4 3 3 4 3 0 1 0 2 2 2 3 3 2 2 2 1 3 2 1 1 4 5 0 1 5 4 4 3 2 1 1 2 1 1 4 4 5 7 1 5 5 4 5 5 5 6 6 6 8
5 4 4 4 4 4 4 4 4 4 4 4 4 4 4 4 4 3 3 3 3 3 4 4 4 5 5 5 6 7 6 2 3 4 5 6 5 4 3 3 3 3 2 1 1 1 2 2 3 3 3 2 1 1 2 3 2 2 2 3 2 1 1 4 4 3 1 2 3 3 1 2 4 6 3 3 3 4 5 4 5 4 4 4 4 5 6 7
5 4 4 4 4 5 5 5 5 5 5 5 4 4 4 4 4 3 3 3 3 3 4 4 4 5 5 4 5 4 6 2 3 6 6 5 5 4 3 3 3 2 1 3 2 3 2 3 3 2 3 2 1 1 2 1 3 4 0 4 2 1 0 2 4 4 3 5 4 1 2 5 8 4 2 2 3 6 5 5 5 4 4 3 4 5 6 7
6 5 5 4 4 4 5 5 6 6 5 5 5 5 5 4 4 4 3 3 3 3 4 4 4 4 3 3 4 4 5 0 3 5 7 5 4 4 3 3 3 2 2 4 2 3 2 4 2 1 3 1 1 0 1 2 4 4 1 3 2 2 3 2 3 5 6 6 4 3 5 8 6 2 3 4 5 6 5 5 4 4 4 4 5 6 6 7
7 6 5 5 4 4 4 5 5 6 6 6 6 5 4 4 4 4 3 3 3 3 3 3 3 3 2 2 4 4 2 3 3 3 5 5 5 5 4 3 3 2 3 2 2 3 2 2 1 1 4 2 1 1 1 4 2 0 2 1 1 3 3 4 5 7 6 5 4 6 8 7 3 2 3 4 5 5 5 4 4 3 4 4 5 5 6 6
8 7 7 6 5 4 4 5 5 6 7 7 6 6 4 4 5 4 3 3 3 3 3 3 3 2 2 3 5 4 0 4 2 3 4 5 5 5 5 4 4 4 4 2 3 3 2 2 2 1 4 1 1 0 0 3 2 2 2 3 6 5 4 5 6 6 5 5 7 8 8 4 5 4 4 5 6 6 5 4 3 3 3 4 4 5 5 6
10 9 9 8 6 5 5 5 5 5 6 7 7 6 5 5 5 3 3 3 2 3 3 2 3 3 3 4 6 4 1 3 3 3 4 5 5 5 5 5 4 5 4 3 3 2 1 1 1 1 2 0 2 2 1 1 2 2 4 6 7 7 7 8 8 5 4 4 6 8 7 3 6 5 3 7 8 6 5 5 4 3 3 4 4 4 4 5
11 10 10 9 7 6 7 7 7 7 7 6 7 6 5 5 5 4 3 3 3 3 3 2 4 4 3 6 6 3 2 4 4 4 5 5 6 7 6 6 6 4 4 4 3 2 1 1 3 3 1 1 2 2 1 1 1 2 4 7 6 7 9 8 5 3 4 3 4 6 5 6 9 6 6 9 7 6 6 5 4 3 3 3 3 3 3 4
12 11 10 9 7 6 7 7 10 11 7 6 7 5 5 5 5 4 3 3 3 3 3 3 4 4 4 5 3 3 4 5 4 4 5 5 5 5 6 6 6 5 4 3 2 5 3 2 3 3 2 3 3 2 1 3 2 3 4 5 6 8 7 6 5 4 4 3 5 6 4 6 10 8 8 8 8 8 7 5 5 3 3 2 2 2 3 4
12 12 12 10 8 6 7 9 12 13 9 7 6 4 5 5 4 3 3 3 3 3 4 4 5 4 4 3 1 4 7 6 5 5 6 5 4 4 4 4 4 4 3 1 4 6 4 2 2 1 2 3 1 3 3 4 4 4 4 3 5 6 2 7 5 5 5 3 6 7 5 3 8 9 7 6 8 8 7 6 5 3 3 2 2 2 2 4
14 14 11 11 9 7 7 10 12 13 12 9 6 5 5 4 3 2 2 2 2 3 3 4 6 4 4 4 1 3 6 6 6 7 7 7 5 4 5 4 4 3 3 4 6 6 4 3 3 2 3 1 2 3 5 5 5 4 4 4 5 4 3 7 5 4 3 3 7 7 5 2 8 8 7 6 7 8 7 6 5 3 4 3 3 2 2 4
17 14 11 12 10 7 7 10 11 13 13 8 4 3 3 2 1 2 2 1 1 4 4 3 7 5 6 3 2 2 4 6 8 9 10 9 6 4 7 7 6 5 4 5 6 6 4 3 1 1 1 2 4 5 5 5 5 5 5 6 5 5 4 4 4 3 2 3 8 9 6 2 6 9 7 6 7 9 7 6 5 4 4 3 2 2 2 3
18 16 14 13 10 6 7 10 9 10 10 4 1 2 2 1 1 1 2 3 3 4 3 1 5 5 4 2 2 4 4 6 8 9 10 11 7 6 9 7 6 6 7 7 5 5 3 3 1 1 3 4 5 4 5 6 5 5 5 5 7 7 6 3 3 4 4 5 7 9 9 7 5 11 8 7 8 8 8 6 6 5 4 3 2 2 2 2
18 17 16 12 10 7 7 8 7 7 7 2 0 1 1 1 2 1 2 5 5 4 1 2 4 4 4 5 4 2 6 7 8 8 10 12 8 8 7 5 6 8 8 5 4 5 4 3 3 4 5 5 6 6 6 7 7 6 5 4 6 6 7 7 3 5 6 6 7 8 10 10 6 11 9 8 8 8 8 6 6 5 5 4 3 3 2 2
19 18 16 12 11 9 9 7 5 4 5 3 2 2 3 2 1 2 4 5 4 4 2 4 9 4 0 6 5 6 7 9 9 7 9 10 9 8 6 5 7 8 6 5 5 7 5 3 4 5 7 8 9 10 10 11 9 8 6 6 7 6 7 6 2 5 4 5 8 10 11 12 8 9 10 8 8 8 7 6 5 5 5 4 4 3 3 3
19 19 17 13 11 11 11 7 4 2 3 2 2 1 1 1 3 3 6 7 9 10 5 3 11 6 1 6 8 9 9 8 5 6 9 11 11 10 7 6 6 6 6 6 6 5 4 6 6 8 10 11 12 14 14 10 5 5 6 7 9 8 8 6 4 6 2 4 8 11 12 14 13 8 10 9 8 8 8 8 7 6 6 5 4 4 4 3
19 19 17 14 13 13 12 8 5 3 2 1 2 3 1 2 3 1 2 8 15 17 14 8 7 5 0 6 10 11 6 4 3 6 11 12 12 10 8 8 7 6 7 7 3 3 3 7 10 13 14 11 9 12 13 9 5 7 8 7 8 8 9 6 4 6 3 3 8 11 13 13 14 10 9 11 9 9 9 9 8 7 6 5 5 5 4 4
19 18 17 16 14 12 11 8 8 6 3 3 5 6 3 4 3 4 2 6 12 17 18 12 7 6 3 6 9 9 3 5 6 7 12 12 12 9 8 9 9 7 7 6 3 3 6 9 13 15 10 4 2 5 9 9 8 8 6 6 7 6 8 5 5 6 3 3 6 8 11 11 13 10 10 11 10 8 7 6 6 6 6 5 5 5 5 5
18 17 17 18 16 13 11 9 9 9 7 7 8 7 3 3 6 7 2 6 8 12 14 13 12 11 9 6 9 10 7 9 8 10 15 13 10 9 8 10 11 9 9 10 8 7 7 8 12 12 6 5 5 5 7 7 7 8 6 6 7 6 7 5 3 5 5 5 5 6 8 10 12 8 9 9 7 6 4 3 3 3 5 5 5 4 5 6
17 16 17 18 18 14 13 11 10 11 11 10 11 9 3 3 6 9 3 5 8 9 11 13 11 12 12 7 11 14 10 10 9 10 18 15 9 7 9 10 12 10 9 13 14 13 11 2 2 8 7 8 9 7 8 7 6 8 9 8 8 8 8 7 1 2 5 7 6 6 8 9 12 13 9 6 5 5 5 5 5 4 4 3 3 4 4 5
18 17 15 17 18 15 14 12 11 12 11 10 13 14 9 4 4 8 3 4 8 5 4 8 6 9 12 9 13 13 8 11 10 11 20 17 11 7 7 7 8 11 12 15 14 14 12 2 4 7 7 8 10 8 9 8 6 8 10 12 12 11 10 10 4 1 6 7 6 6 7 5 6 12 10 7 5 6 7 8 8 7 7 5 5 6 5 4
21 20 16 18 19 17 15 10 10 12 11 12 12 11 12 10 1 3 1 4 8 3 4 6 6 10 13 12 14 9 5 10 4 11 19 14 8 4 5 6 4 8 10 11 9 7 4 4 4 7 7 8 9 8 9 9 8 7 4 7 11 11 10 11 7 3 5 5 3 5 7 5 3 6 7 8 7 8 8 8 9 9 8 8 7 7 7 6
26 23 20 20 20 22 15 5 11 15 8 10 12 10 11 11 6 2 1 4 8 5 7 5 4 7 10 13 18 10 3 5 7 9 12 8 7 2 5 9 5 5 4 3 5 3 5 7 5 7 7 8 8 8 9 10 8 4 2 0 5 8 9 9 8 6 6 5 1 5 5 7 7 4 6 7 7 8 9 10 10 10 9 9 8 8 8 8
30 28 25 22 22 26 18 7 13 16 8 3 6 13 12 9 7 3 2 5 4 5 6 2 2 3 5 12 19 10 2 6 7 5 4 4 6 2 7 12 9 9 8 7 7 2 5 9 9 10 9 8 8 6 7 11 8 2 3 2 1 2 6 7 7 6 6 6 5 7 6 5 8 3 6 6 6 8 11 12 12 12 11 11 10 10 9 8
32 31 30 27 24 27 22 13 12 14 14 6 6 8 12 9 6 1 1 5 2 3 4 3 4 4 7 11 14 8 3 3 1 1 5 3 3 0 5 10 9 11 11 12 11 1 2 3 5 9 10 8 4 3 2 7 6 2 5 4 4 2 1 3 5 5 5 7 8 8 9 6 8 4 6 4 5 9 10 11 12 12 12 11 11 11 10 9
34 34 33 31 28 30 28 21 15 13 15 11 7 11 14 7 3 3 5 5 2 1 3 4 6 8 13 13 9 7 5 2 3 5 6 4 4 2 2 2 5 7 7 10 10 1 3 2 1 4 4 2 5 7 5 1 4 7 7 4 4 3 2 3 5 3 5 9 9 11 13 9 7 4 6 4 3 6 7 9 11 12 13 12 11 11 11 9
37 35 35 35 34 33 26 18 19 19 14 10 9 15 12 3 1 5 8 2 3 1 5 5 7 12 17 16 9 9 9 4 7 10 7 5 6 5 3 2 2 4 5 7 8 5 4 4 2 2 1 3 7 6 4 3 4 6 5 4 4 3 3 3 4 4 7 8 5 6 10 12 8 4 4 5 4 4 6 10 14 14 14 13 11 11 11 9
39 36 37 38 36 35 27 18 23 26 18 13 11 10 6 2 2 6 4 2 1 5 9 8 9 12 17 16 11 12 11 7 9 11 9 8 8 9 10 9 7 6 6 8 7 5 6 8 6 4 1 5 7 4 3 2 4 6 6 6 5 4 4 5 5 6 8 5 2 3 4 8 9 8 5 3 7 6 3 5 13 16 15 14 12 11 10 9
40 38 39 40 38 36 31 24 28 30 24 19 13 5 3 4 7 9 8 5 2 1 5 8 11 13 16 15 10 11 10 7 10 11 8 10 8 10 13 12 12 8 5 6 8 5 4 6 9 7 3 8 11 8 5 4 7 9 9 8 7 6 6 7 6 6 7 3 1 2 3 4 6 7 6 2 7 6 5 4 10 15 15 14 13 12 10 9
40 40 41 43 42 39 33 27 30 33 28 20 10 6 7 7 9 10 12 10 4 2 3 7 11 12 14 11 7 11 9 6 11 11 8 10 8 9 12 13 17 11 3 5 7 7 6 4 9 12 6 11 15 12 8 7 8 11 9 8 8 7 7 8 6 6 5 2 1 3 4 5 4 2 2 4 6 5 5 4 8 12 13 12 12 12 11 10
38 41 41 41 41 40 36 30 32 37 30 16 6 8 11 10 9 10 11 10 7 2 3 7 10 10 11 8 5 10 6 3 11 10 7 10 9 9 11 12 17 14 7 7 5 7 10 6 7 8 4 13 16 11 8 7 7 8 7 8 9 6 5 5 1 1 1 1 2 5 4 4 2 3 4 5 5 6 5 5 10 12 13 12 12 12 11 10
36 38 36 36 37 40 40 34 36 40 28 11 6 8 11 10 5 5 7 10 10 7 7 7 8 8 10 7 6 10 4 1 11 9 6 10 9 11 12 9 15 17 12 8 3 5 8 3 5 5 2 9 9 5 7 5 3 6 7 8 4 1 2 3 2 2 0 6 4 6 5 4 2 3 4 7 6 6 6 7 11 12 13 14 12 11 11 10
29 28 24 29 34 38 41 39 41 37 20 9 10 8 9 9 3 2 5 10 12 11 9 7 7 8 10 8 7 11 7 4 10 9 6 8 8 12 14 9 13 19 17 10 3 3 5 2 3 5 4 4 2 1 4 1 1 5 6 6 4 3 2 3 4 2 3 8 5 6 8 7 6 4 4 7 8 8 8 9 11 12 13 13 12 11 12 11
19 15 14 26 36 36 40 44 42 28 11 9 13 10 8 9 8 6 6 8 11 13 10 9 9 9 10 9 8 12 11 7 10 9 7 7 6 11 16 10 11 19 20 10 2 2 5 3 2 3 3 4 2 2 4 1 1 1 1 3 4 3 5 5 6 5 6 8 5 6 9 8 8 5 5 9 11 11 11 11 12 14 14 13 12 13 13 12
12 6 6 22 34 36 43 47 35 17 8 11 13 11 8 9 10 10 9 10 11 12 12 12 10 9 10 11 8 12 13 10 11 9 7 7 5 11 17 11 10 17 18 11 3 2 5 5 3 0 1 5 5 5 7 7 4 1 2 3 3 3 4 6 6 4 5 7 6 5 7 6 8 8 10 13 13 14 14 12 12 15 15 14 13 13 13 13
9 3 3 16 32 40 46 40 21 9 7 10 10 7 5 8 11 12 11 10 9 8 11 13 13 12 12 13 11 10 11 10 11 9 8 9 7 9 15 12 9 13 16 14 7 3 3 4 3 1 2 5 6 8 11 11 10 7 6 7 6 3 1 3 5 5 4 6 6 6 6 4 4 6 10 13 13 15 16 14 13 13 15 14 14 14 14 13
5 5 3 15 35 43 39 22 9 8 6 7 10 9 5 5 7 10 8 4 5 4 3 7 11 11 11 13 13 9 9 9 10 9 7 10 9 7 11 15 12 10 11 10 9 6 5 4 4 3 5 7 5 4 6 6 7 9 9 10 10 8 5 4 6 5 3 4 4 5 8 4 2 1 1 3 6 10 14 14 11 12 15 15 14 15 15 13
3 5 3 20 41 43 27 10 6 7 5 8 10 7 6 3 3 8 8 4 5 4 1 3 7 8 8 11 13 9 8 7 9 10 8 10 13 8 9 14 13 12 10 7 7 6 3 2 5 4 4 5 2 2 1 1 2 5 7 8 9 8 8 8 7 4 4 3 0 2 6 3 2 3 4 5 4 3 6 9 9 10 13 14 14 14 14 13
3 4 4 23 45 37 15 8 8 6 5 8 7 5 6 6 6 9 10 9 8 5 4 4 4 6 6 6 9 9 9 7 9 12 10 9 10 4 2 9 11 11 8 4 3 3 3 1 5 3 1 1 2 2 1 1 2 5 7 6 7 9 9 6 3 2 4 5 3 3 7 3 2 3 4 4 3 3 2 5 8 8 9 11 13 14 13 12
3 2 2 19 42 35 12 8 10 8 8 9 9 11 9 6 9 12 12 12 11 7 7 7 5 5 5 2 3 7 10 9 10 13 11 9 6 2 4 5 12 11 7 2 3 6 5 4 6 4 3 4 4 5 5 4 5 6 7 8 8 7 6 3 0 1 5 8 8 7 9 3 3 1 2 2 2 2 2 4 6 7 8 10 11 11 12 11
2 3 0 8 21 19 8 6 8 10 10 11 13 16 12 7 9 14 14 12 10 9 8 7 5 6 4 1 1 4 7 8 8 7 6 5 3 3 5 1 7 9 4 4 1 6 6 5 7 8 9 10 9 7 6 7 6 4 7 11 13 13 11 6 3 6 9 7 9 10 9 1 3 2 2 2 3 3 4 5 5 5 7 9 10 10 11 11
2 2 2 3 5 4 3 2 5 8 10 11 10 11 15 13 8 11 14 12 11 11 9 4 2 4 4 4 5 6 8 7 3 1 4 4 2 2 3 2 1 2 2 6 3 3 2 2 9 13 14 11 5 2 5 10 9 10 14 15 15 17 15 9 7 10 8 4 7 12 9 3 4 5 5 5 6 5 5 7 7 6 7 8 9 9 8 8
3 3 4 3 2 4 3 1 4 8 10 12 8 7 16 20 11 8 12 12 11 12 10 4 4 7 8 10 11 10 9 7 2 2 6 4 2 2 2 1 2 3 4 4 2 2 1 5 13 17 17 10 3 3 7 14 13 16 18 17 16 16 16 14 14 11 6 5 9 9 9 9 8 8 8 8 8 6 6 8 8 8 8 7 8 9 9 8
3 3 3 2 1 4 5 4 6 9 11 12 7 5 14 19 15 10 11 10 9 10 9 5 9 15 14 12 11 8 7 8 7 7 7 3 3 2 1 0 1 2 3 2 1 2 2 8 12 12 16 12 2 4 6 11 13 15 16 17 18 17 19 21 18 12 9 10 9 5 11 14 9 9 10 9 8 8 6 6 6 8 9 9 9 10 11 11
1 1 0 1 1 3 5 4 5 8 11 11 9 9 12 17 18 14 8 6 8 11 12 12 16 18 16 13 10 7 8 9 9 9 8 4 4 4 2 2 2 1 2 3 1 1 2 7 7 5 11 13 3 2 4 5 8 12 14 16 18 19 23 23 19 15 13 14 10 4 9 11 7 9 10 6 4 3 3 5 5 8 9 10 10 11 12 13
1 2 1 1 1 2 2 3 5 6 7 7 8 10 11 15 18 15 8 7 9 11 13 19 21 16 15 14 12 10 11 11 9 8 8 7 5 5 4 4 3 2 2 4 2 1 3 5 4 1 6 10 4 1 2 4 4 6 8 12 16 19 20 19 17 16 14 14 10 4 6 8 5 7 7 4 3 3 4 4 5 7 8 10 10 10 11 12
1 3 1 2 3 4 4 3 4 5 5 5 5 7 9 14 16 12 6 4 6 7 11 19 21 13 10 13 16 18 17 12 8 5 6 8 7 4 4 4 5 5 5 5 4 4 5 3 1 3 7 9 4 4 4 2 4 4 6 11 16 15 13 13 13 13 14 15 10 6 9 8 5 6 4 3 3 4 5 6 6 6 8 10 10 10 11 11
1 3 2 2 3 5 5 3 4 5 5 5 6 6 7 9 9 8 5 0 1 2 3 10 13 9 8 12 17 16 9 5 3 2 3 3 3 3 2 3 4 5 8 7 5 4 6 5 3 5 8 6 2 4 5 3 1 6 9 12 14 12 10 11 12 13 16 14 9 9 10 5 7 7 5 4 5 6 8 7 7 7 9 10 10 10 10 10
Wind_Direction
160 162 154 143 151 189 236 244 246 240 239 246 252 274 294 273 280 293 304 320 332 337 331 329 324 326 332 331 337 336 331 332 323 299 285 286 161 148 141 121 109 95 87 81 264 269 251 227 37 311 264 205 324 25 115 2 328 267 246 240 243 172 133 116 149 112 106 123 121 109 41 312 239 122 116 243 219 230 249 116 93 76 75 69 54 23 11 12
163 171 166 168 195 221 250 253 260 271 270 275 279 290 304 294 301 311 316 315 311 311 310 316 318 328 333 333 340 334 332 329 300 276 349 250 170 148 119 103 96 83 74 15 305 304 298 322 19 294 276 221 77 356 212 357 303 280 287 248 88 66 76 53 78 84 81 112 112 105 51 325 330 30 24 283 235 235 245 140 129 108 89 70 51 30 23 25
170 166 176 224 283 292 311 316 288 283 278 281 293 298 298 293 296 299 301 300 298 301 308 315 323 332 332 337 339 333 334 319 279 276 44 147 152 132 112 105 88 77 65 359 336 329 326 356 338 289 277 247 83 270 231 7 314 304 293 262 84 78 90 77 79 79 60 67 96 108 64 303 327 357 321 311 297 268 219 94 134 112 63 43 42 27 23 28
195 188 200 239 276 294 316 317 293 284 279 280 291 294 291 289 287 287 283 287 296 301 311 317 327 332 332 339 333 332 331 300 266 79 80 141 137 123 116 110 98 77 56 1 4 2 318 306 278 284 270 231 118 232 240 48 339 324 311 352 83 106 129 108 89 77 64 39 349 62 17 265 62 330 302 309 296 250 86 42 11 24 29 29 33 24 24 28
212 219 225 246 264 285 294 290 285 277 274 273 280 291 290 286 288 289 281 287 297 302 311 315 325 330 333 338 330 335 323 285 104 102 136 144 144 136 127 124 112 72 64 119 53 80 232 236 243 257 255 227 155 216 121 62 333 275 34 51 84 89 128 120 101 75 64 18 325 256 262 295 47 279 278 289 292 51 75 38 30 30 35 31 24 23 26 30
223 231 242 255 267 278 282 287 287 275 271 268 268 277 281 285 289 291 287 286 293 304 310 314 328 332 334 333 326 326 304 294 120 172 166 157 169 149 140 138 116 82 93 240 296 245 240 239 238 240 253 249 224 266 75 78 310 277 110 92 90 5 65 124 123 105 119 243 237 246 321 348 276 262 248 275 321 69 73 64 70 61 57 44 36 36 32 34
241 246 253 257 267 274 277 280 281 277 274 270 268 263 267 278 283 290 291 280 288 304 308 317 329 325 327 324 310 285 271 292 140 192 184 180 189 174 171 148 134 117 174 271 272 253 254 247 250 265 266 256 239 43 64 119 251 279 172 121 112 32 205 138 139 155 195 227 233 274 325 265 257 255 195 186 87 90 96 87 85 83 81 67 57 49 41 40
259 263 269 268 272 280 280 278 278 280 276 271 270 261 258 268 276 286 287 277 283 298 305 317 326 320 319 311 296 267 254 338 119 194 201 205 206 203 196 161 165 140 241 274 293 288 261 251 269 283 264 296 352 130 69 265 227 256 314 115 137 204 210 184 180 200 208 228 232 225 251 248 245 241 192 161 108 107 110 101 109 109 96 80 62 51 47 42
258 261 270 272 280 289 291 289 283 278 276 271 269 264 258 261 272 281 286 283 281 296 303 303 304 295 278 281 287 278 262 94 112 207 210 216 221 211 194 181 197 189 237 255 274 272 250 263 296 304 307 22 312 298 90 269 235 17 355 90 215 222 213 217 231 229 215 222 211 217 242 232 192 186 191 150 120 123 124 120 127 128 100 77 64 51 45 41
252 253 257 265 278 289 299 302 296 288 281 272 271 271 260 256 268 275 281 280 277 291 287 282 277 246 247 252 255 264 59 99 143 213 212 214 211 199 194 194 205 220 236 215 229 248 256 323 49 358 314 338 232 6 125 276 348 17 329 289 267 255 240 224 237 239 221 224 208 225 253 199 148 208 209 139 139 144 144 139 129 131 98 74 66 55 43 40
251 251 249 256 269 289 299 297 302 304 291 280 274 272 264 262 271 274 275 269 269 277 267 266 242 225 244 248 251 261 123 129 158 182 193 195 180 182 204 204 201 230 246 223 220 249 312 341 90 224 295 157 173 164 189 329 357 334 316 289 259 245 243 225 230 233 214 225 208 226 253 158 152 216 183 130 148 162 161 146 135 132 99 81 74 65 48 42
250 250 248 250 254 277 295 300 306 306 301 288 274 268 267 270 277 280 275 259 255 260 250 243 227 216 235 251 252 244 161 158 170 180 187 186 184 191 203 201 197 216 254 251 202 185 276 177 207 239 2 330 235 170 154 103 302 298 291 287 274 254 246 218 205 201 206 205 178 210 236 201 194 187 125 132 153 165 171 159 145 136 112 104 96 90 77 60
252 247 245 249 244 259 283 293 299 302 301 288 279 271 266 274 282 282 277 259 252 248 233 228 212 195 236 258 226 199 204 196 192 190 189 183 182 191 196 198 197 199 238 274 161 169 198 176 237 258 29 295 280 82 140 174 239 274 248 270 294 274 239 173 145 161 192 160 160 205 254 215 185 152 123 139 159 169 179 169 158 150 135 129 111 106 92 80
261 253 242 244 234 232 261 271 289 302 300 286 282 275 275 282 277 272 270 255 247 241 225 214 196 185 236 255 153 210 220 210 197 182 183 168 148 158 168 179 187 193 201 184 153 161 166 153 232 185 84 314 14 117 219 209 217 258 253 237 256 272 197 136 144 179 183 152 174 213 272 224 153 137 132 147 166 178 185 170 164 162 148 144 129 129 104 90
265 262 244 239 226 208 246 266 287 302 303 291 271 272 285 285 273 257 244 242 248 229 201 193 188 190 256 242 205 233 214 203 191 185 182 163 158 161 145 138 130 145 154 150 153 144 140 167 206 191 112 62 166 202 246 236 222 228 256 248 224 243 176 144 153 203 202 156 184 210 269 204 146 145 136 144 178 188 196 175 163 169 152 155 146 134 120 106
260 261 244 237 221 197 238 261 281 299 308 299 268 278 298 296 285 227 216 210 196 173 157 189 191 216 281 241 158 206 201 198 194 197 194 174 175 165 136 129 118 118 123 127 138 133 140 181 234 301 136 177 212 230 255 251 241 215 230 261 246 243 234 169 150 204 212 162 188 209 260 291 142 149 139 145 181 190 202 186 168 174 157 161 159 141 143 129
256 258 251 234 209 194 232 252 275 307 322 307 255 322 315 321 147 199 183 156 144 138 150 220 183 215 267 167 185 218 180 182 186 192 196 184 176 158 145 141 136 129 119 121 141 153 167 178 170 258 216 226 229 225 246 247 246 222 211 249 261 254 252 231 154 156 178 198 216 214 243 272 151 148 157 160 176 192 200 192 178 177 170 168 163 152 158 142
252 256 256 228 195 197 224 244 279 328 337 314 219 338 339 111 143 147 152 151 124 107 213 231 186 229 237 182 192 159 129 153 169 173 186 183 171 166 164 159 152 148 143 145 175 185 193 190 198 238 225 220 220 210 222 237 260 268 243 251 265 246 236 248 212 153 175 202 240 234 240 258 190 152 166 167 177 200 198 187 180 176 176 172 175 170 155 149
247 252 254 222 196 205 211 229 269 326 333 330 36 69 78 74 186 208 200 185 163 182 227 181 189 231 270 162 139 91 112 139 151 161 171 167 160 165 170 161 163 173 177 178 186 188 197 192 194 235 230 215 214 211 223 243 273 293 286 282 280 262 249 256 141 133 184 220 246 251 253 261 234 172 169 170 179 201 194 179 179 180 180 177 181 175 158 163
244 250 250 223 212 217 204 208 235 283 323 355 47 74 131 216 227 206 198 209 220 232 279 195 199 231 63 130 125 113 119 134 148 160 160 158 157 163 167 164 171 199 216 204 186 172 193 215 211 223 229 228 223 217 230 252 282 293 282 276 269 266 269 266 126 123 154 247 253 257 259 263 260 215 172 169 180 195 194 186 188 186 183 186 182 173 166 158
241 246 245 221 218 219 196 186 201 224 288 176 198 229 262 279 245 244 184 219 225 233 258 249 224 263 271 121 141 145 133 153 179 161 161 162 164 169 172 175 185 206 216 208 172 121 190 225 226 229 237 246 240 224 230 247 257 262 264 265 259 254 265 264 133 130 147 239 259 265 262 258 265 248 172 164 185 198 200 195 196 190 180 186 180 175 170 146
238 241 241 219 209 204 186 179 198 209 214 205 219 233 309 357 7 13 353 256 233 223 240 246 243 260 189 133 163 175 196 191 170 166 170 170 179 190 176 178 206 209 186 181 170 181 216 231 233 238 241 232 233 225 231 243 249 253 250 253 257 254 266 255 141 139 167 236 265 270 267 261 265 249 175 177 197 191 192 191 190 186 180 188 182 176 173 161
234 233 236 223 205 195 190 191 199 200 197 205 218 227 279 34 54 23 310 275 267 220 221 224 224 226 202 173 177 186 208 202 192 182 176 178 189 200 185 183 213 212 180 188 208 220 224 235 236 231 213 188 214 218 223 241 242 240 236 241 250 246 261 255 154 142 184 229 278 288 276 268 265 237 173 182 192 158 151 166 167 184 188 186 176 172 177 173
229 226 233 221 202 199 207 207 192 190 199 214 228 226 211 112 47 10 311 270 272 223 206 211 218 220 205 177 172 187 211 221 220 180 171 181 179 185 203 199 213 216 200 205 214 230 236 251 215 203 195 214 227 214 210 229 235 230 228 233 248 247 249 255 234 133 217 229 238 264 276 267 251 230 196 158 159 160 164 179 185 193 192 172 162 176 184 176
227 223 224 208 198 200 205 204 187 188 203 220 237 232 213 202 15 3 330 273 258 224 187 206 213 213 195 154 161 180 212 228 226 171 168 185 176 163 201 204 219 221 213 213 218 239 241 177 124 183 190 213 224 220 207 214 243 240 225 224 240 256 260 264 278 331 277 257 196 212 269 276 238 226 202 147 165 192 178 190 196 187 185 182 183 185 180 174
224 219 211 196 193 193 193 201 190 187 205 225 239 232 213 214 267 8 337 284 263 219 137 182 182 181 174 155 158 156 212 228 214 146 163 186 188 166 201 185 212 236 219 216 226 251 229 138 150 176 176 199 216 230 210 202 239 257 238 216 231 254 264 263 264 244 271 287 148 188 259 278 259 221 176 146 178 190 179 198 198 183 183 185 186 181 173 173
220 214 208 198 193 192 189 182 180 179 201 235 234 223 210 207 209 232 222 277 267 178 145 180 184 173 165 160 159 148 203 174 104 139 164 182 185 162 233 191 172 233 211 191 228 229 156 159 174 175 185 204 213 234 212 195 227 255 21 131 214 241 253 249 245 235 255 291 198 193 238 274 271 227 146 150 179 186 191 203 196 187 186 183 183 176 169 169
222 214 207 201 198 200 197 164 169 184 201 203 202 209 201 183 193 214 213 247 266 128 142 166 100 125 127 158 169 163 122 130 133 167 137 156 185 166 226 211 204 209 180 180 221 211 151 179 185 187 203 216 218 239 195 187 219 241 74 68 158 238 257 242 235 239 252 273 247 199 183 253 264 205 138 163 197 210 208 199 192 190 184 180 180 172 166 162
225 220 210 203 203 207 209 196 175 193 205 160 92 176 175 158 178 169 200 229 235 113 136 139 132 124 125 161 183 171 109 118 169 140 103 145 214 240 229 227 234 216 189 204 228 300 93 190 199 201 215 220 194 51 115 190 215 148 117 100 90 109 241 224 234 243 240 249 249 211 180 224 270 222 164 176 220 231 217 193 187 184 178 178 175 168 164 159
223 223 216 206 203 206 210 211 201 194 196 179 119 138 145 140 159 167 197 216 247 169 115 136 168 157 152 162 183 185 168 117 81 129 140 157 188 235 288 270 254 223 193 219 242 252 102 92 317 221 224 190 113 69 36 50 135 140 145 125 124 161 162 199 230 237 245 249 241 216 199 211 269 253 182 173 225 221 190 173 175 172 172 174 170 167 164 160
220 223 219 209 205 202 202 207 198 187 185 185 156 141 138 98 76 189 202 232 323 203 133 154 161 151 163 167 171 193 192 153 134 153 154 146 172 194 182 161 206 211 208 230 238 213 172 174 174 155 116 113 114 97 53 56 132 157 173 167 172 186 169 210 219 201 243 253 226 205 203 207 232 248 163 120 88 133 154 169 174 169 170 170 168 167 163 160
218 220 219 215 210 203 199 198 187 186 197 197 170 148 142 119 183 222 213 73 334 187 155 161 163 162 177 180 178 182 179 167 165 171 168 165 178 189 193 189 167 178 223 222 209 203 211 208 175 122 147 180 163 144 105 113 184 192 190 184 198 215 203 222 215 202 235 246 127 123 186 213 233 245 235 130 101 106 102 164 171 166 167 166 164 164 160 157
219 219 217 217 214 205 203 201 189 190 196 185 170 165 159 170 203 218 204 182 204 156 130 147 166 175 182 189 190 170 167 174 172 177 179 175 188 200 206 207 190 198 238 200 189 193 206 208 179 162 189 198 191 184 170 171 187 194 191 183 196 212 228 237 224 222 233 222 92 142 177 231 250 246 245 134 98 93 59 94 158 161 161 161 160 158 155 157
221 219 215 216 214 209 206 199 190 188 179 164 167 186 177 195 212 205 205 212 216 59 95 142 162 177 187 194 181 160 171 185 170 175 178 176 199 208 205 212 208 215 246 193 195 196 213 237 183 178 174 177 193 209 204 176 178 196 196 196 207 213 237 247 233 236 235 143 118 172 179 218 216 165 117 96 93 95 80 96 140 151 154 153 154 155 156 161
222 219 216 213 211 210 205 197 191 183 168 156 185 189 185 209 215 204 207 204 195 152 122 145 154 174 193 197 173 170 185 193 171 175 185 188 204 206 198 206 205 205 204 205 206 192 221 250 162 160 149 166 184 212 205 175 179 194 195 208 221 227 249 262 257 253 292 3 195 186 220 251 181 116 114 128 122 113 111 124 140 148 152 151 156 161 163 167
220 219 217 211 209 207 201 195 188 178 163 158 204 198 204 217 204 196 193 183 188 165 134 157 168 184 198 188 183 189 192 151 171 177 204 207 221 219 209 204 196 198 197 195 192 181 215 250 127 125 131 168 184 199 183 185 181 171 189 206 205 3 282 254 213 113 338 276 238 171 220 259 187 167 144 147 150 136 138 152 153 155 157 159 166 167 169 172
219 219 216 211 211 204 195 191 183 174 162 174 201 208 219 224 221 189 174 181 191 167 149 186 191 189 201 195 190 189 178 153 173 184 196 196 224 223 213 211 193 199 205 202 229 217 210 249 151 165 173 158 1 354 168 310 47 153 191 188 118 44 312 262 247 221 223 255 245 172 208 221 205 210 149 156 176 167 165 167 162 163 166 171 174 171 173 173
220 217 220 219 212 199 190 186 178 169 163 183 205 224 226 225 230 224 199 191 193 181 187 217 202 187 201 205 188 176 177 173 174 191 190 180 216 202 192 202 197 200 207 205 268 245 207 233 192 174 171 129 80 206 185 202 242 183 242 168 140 218 221 201 228 245 231 242 253 212 212 217 216 204 155 178 190 180 176 173 172 176 177 180 178 173 174 170
222 213 237 220 208 196 188 182 172 166 173 181 204 227 221 221 225 224 226 217 205 197 205 220 216 207 211 216 196 168 176 185 169 180 198 190 204 183 177 187 197 201 201 189 189 206 194 223 225 175 110 136 148 202 196 185 189 259 279 203 187 242 230 204 210 234 236 241 257 232 210 218 223 202 182 191 190 178 175 178 185 186 183 183 179 174 175 174
216 223 258 204 198 193 185 178 171 172 179 182 204 216 201 218 222 219 226 225 217 212 217 222 221 221 222 225 217 178 180 197 179 183 207 189 181 183 180 184 191 196 194 188 198 203 175 215 226 117 130 164 177 203 200 191 185 187 198 200 193 186 239 259 232 225 236 246 249 247 244 234 204 196 199 196 183 174 175 180 188 188 184 184 181 178 177 177
195 233 235 181 187 184 177 176 186 183 174 193 215 220 206 212 220 212 212 230 244 234 234 238 231 231 228 223 220 191 177 202 196 198 213 195 200 206 182 188 188 170 171 188 205 204 185 200 202 167 183 204 202 193 200 201 191 193 197 197 196 188 182 220 224 208 215 246 246 260 271 260 121 90 236 179 162 168 177 181 180 179 182 183 184 184 180 176
198 239 166 166 178 175 168 186 203 177 186 198 205 213 198 186 220 210 193 191 238 236 213 267 251 243 232 221 221 198 169 194 203 204 218 210 213 214 183 188 181 150 151 177 200 194 148 158 205 194 192 207 188 92 109 249 231 234 230 213 203 197 196 211 217 182 176 221 248 293 277 272 82 48 42 51 53 99 158 174 172 174 180 183 186 185 179 176
221 231 139 167 175 170 169 210 190 181 215 198 192 199 189 194 212 211 201 194 207 220 213 227 244 245 244 230 221 200 180 192 203 205 219 220 211 219 196 181 157 144 162 172 167 158 91 147 205 200 185 173 118 134 168 155 222 243 241 219 211 210 203 213 234 138 185 204 169 223 251 242 76 36 50 62 47 50 97 159 166 168 174 180 184 182 178 175
212 197 110 180 178 172 180 210 187 199 209 186 195 205 204 215 212 210 212 202 197 203 214 222 220 221 240 237 212 205 193 201 213 210 214 218 202 42 11 173 157 161 181 163 154 171 167 187 184 178 223 216 194 208 212 197 201 224 223 205 213 212 178 158 61 158 229 214 179 212 247 225 105 58 62 95 115 125 136 156 165 166 168 174 176 177 178 172
181 179 20 199 187 181 197 206 187 200 198 184 196 203 205 216 212 211 215 212 208 202 208 227 217 198 206 159 218 228 210 218 231 218 211 219 195 49 8 233 177 180 178 32 39 182 178 185 176 183 214 216 212 220 208 181 172 205 219 206 206 203 185 174 192 221 236 212 178 213 241 179 113 164 184 177 175 166 163 166 173 166 160 168 173 177 180 175
190 217 176 195 215 218 246 218 181 193 192 189 196 201 204 212 212 204 209 220 223 213 214 226 184 177 187 188 215 230 226 235 255 214 217 215 168 68 8 339 275 179 64 26 355 195 165 205 198 205 217 215 225 251 136 128 148 196 206 200 200 203 198 191 209 224 225 199 203 222 223 195 177 188 200 203 196 196 182 172 178 171 157 166 172 171 172 166
214 225 176 167 218 223 238 247 186 195 195 191 191 186 199 212 217 191 198 216 217 214 225 225 179 197 196 194 214 225 219 222 213 204 227 215 126 61 28 5 359 41 49 20 319 155 137 226 216 219 229 233 332 349 157 150 174 201 201 196 198 199 196 199 215 218 181 190 235 215 192 213 211 187 202 205 191 203 198 177 178 177 168 170 167 161 164 160
212 209 182 172 195 203 222 221 194 206 203 191 197 200 197 208 214 198 197 211 211 207 215 222 217 217 209 199 211 217 201 204 211 215 218 192 142 153 82 38 228 78 78 63 6 106 182 233 226 224 238 242 339 349 218 190 194 198 193 193 191 189 196 204 215 211 181 212 241 165 172 213 208 177 198 200 190 204 196 162 155 157 160 165 165 166 173 174
188 208 202 329 261 193 207 199 180 208 210 193 202 217 205 205 211 210 198 189 208 207 203 220 227 218 212 210 211 208 196 199 213 215 202 170 163 172 165 213 206 109 111 133 110 114 192 241 241 234 248 245 234 4 294 255 224 205 195 193 186 190 200 205 212 213 208 229 242 158 185 220 203 182 194 183 173 182 118 109 133 149 157 163 167 174 180 182
193 232 185 157 241 194 174 168 165 200 216 202 206 216 213 212 213 212 195 180 209 208 198 219 229 217 210 215 215 219 214 208 218 214 183 173 184 187 199 202 155 113 169 160 153 176 191 228 227 161 253 249 231 169 305 318 276 226 207 199 195 198 202 204 211 213 217 236 240 207 226 236 197 176 170 122 92 100 114 153 169 165 165 166 172 179 183 186
252 315 297 177 200 189 179 176 169 193 212 206 210 212 216 223 218 209 197 190 216 209 198 218 228 222 211 215 220 227 226 215 220 214 173 182 196 194 199 183 147 155 181 174 162 174 188 209 128 145 228 238 212 195 207 31 10 294 254 224 209 201 194 198 210 208 211 224 222 219 245 240 173 144 134 126 145 164 190 192 175 171 172 172 180 185 185 188
157 327 308 232 207 186 184 182 170 195 207 195 201 204 213 228 219 200 203 165 163 212 233 229 226 219 210 214 222 228 217 164 148 104 108 142 122 94 112 123 129 159 176 177 172 175 187 195 171 186 216 232 217 193 177 98 343 253 249 230 210 193 182 195 212 213 211 213 209 219 238 220 147 146 153 170 185 201 213 197 173 174 175 180 189 185 180 184